When you browse on this site, cookies collect data to enhance your experience and personalize the content and advertising you see.
Visit our Privacy Policy to learn more. By continuing to use the site, you agree to this use of cookies and data.
  • In United Kingdom
  • List of Countries
  • For 7 days
  • Water Temperature
  • Weather Map
  • Weather Widgets
  • user-avatar
    Login

    Hourly Weather Berat

    Today, 24 January, Friday

    Time Temperature Precipitation Wind Pressure Humidity
    00:00 +6°C° 0 mm 2 mps 754 mmHg 50%
    01:00 +6°C° 0 mm 2 mps 754 mmHg 49%
    02:00 +6°C° 0 mm 2 mps 754 mmHg 48%
    03:00 +6°C° 0 mm 2 mps 754 mmHg 47%
    04:00 +5°C° 0 mm 2 mps 754 mmHg 47%
    05:00 +5°C° 0 mm 2 mps 754 mmHg 47%
    06:00 +5°C° 0 mm 2 mps 755 mmHg 48%
    07:00 +5°C° 0 mm 2 mps 755 mmHg 49%
    08:00 +7°C° 0 mm 2 mps 755 mmHg 47%
    09:00 +9°C° 0 mm 2 mps 755 mmHg 45%
    10:00 +12°C° 0 mm 1 mps 756 mmHg 44%
    11:00 +13°C° 0 mm 1 mps 755 mmHg 44%
    12:00 +14°C° 0 mm 1 mps 755 mmHg 44%
    13:00 +14°C° 0 mm 1 mps 754 mmHg 44%
    14:00 +14°C° 0 mm 1 mps 754 mmHg 50%
    15:00 +13°C° 0 mm 1 mps 754 mmHg 55%
    16:00 +12°C° 0 mm 1 mps 754 mmHg 61%
    17:00 +11°C° 0 mm 1 mps 754 mmHg 65%
    18:00 +10°C° 0 mm 1 mps 754 mmHg 69%
    19:00 +9°C° 0 mm 1 mps 754 mmHg 73%
    20:00 +9°C° 0 mm 1 mps 754 mmHg 75%
    21:00 +9°C° 0 mm 1 mps 754 mmHg 78%
    22:00 +8°C° 0 mm 1 mps 754 mmHg 80%
    23:00 +8°C° 0 mm 1 mps 754 mmHg 82%

    Tomorrow, 25 January, Saturday

    Time Temperature Precipitation Wind Pressure Humidity
    00:00 +7°C° 0 mm 2 mps 753 mmHg 83%
    01:00 +7°C° 0 mm 2 mps 753 mmHg 84%
    02:00 +7°C° 0 mm 2 mps 753 mmHg 84%
    03:00 +7°C° 0 mm 2 mps 753 mmHg 83%
    04:00 +7°C° 0 mm 2 mps 752 mmHg 83%
    05:00 +7°C° 0 mm 2 mps 752 mmHg 83%
    06:00 +6°C° 0 mm 2 mps 752 mmHg 83%
    07:00 +6°C° 0 mm 2 mps 752 mmHg 83%
    08:00 +8°C° 0 mm 2 mps 752 mmHg 79%
    09:00 +10°C° 0 mm 2 mps 752 mmHg 74%
    10:00 +12°C° 0 mm 1 mps 752 mmHg 70%
    11:00 +13°C° 0 mm 1 mps 752 mmHg 68%
    12:00 +14°C° 0 mm 1 mps 752 mmHg 67%
    13:00 +14°C° 0 mm 1 mps 751 mmHg 65%
    14:00 +14°C° 0 mm 1 mps 751 mmHg 69%
    15:00 +13°C° 0 mm 1 mps 751 mmHg 72%
    16:00 +13°C° 0 mm 1 mps 750 mmHg 76%
    17:00 +12°C° 0 mm 1 mps 751 mmHg 78%
    18:00 +12°C° 0 mm 1 mps 751 mmHg 80%
    19:00 +11°C° 0 mm 1 mps 751 mmHg 83%
    20:00 +11°C° 0 mm 1 mps 751 mmHg 84%
    21:00 +10°C° 0 mm 1 mps 751 mmHg 85%
    22:00 +9°C° 0 mm 2 mps 751 mmHg 85%
    23:00 +9°C° 0 mm 2 mps 751 mmHg 85%

    Day after tomorrow, 26 January, Sunday

    Time Temperature Precipitation Wind Pressure Humidity
    00:00 +8°C° 0 mm 2 mps 751 mmHg 85%
    01:00 +8°C° 0 mm 2 mps 751 mmHg 85%
    02:00 +8°C° 0 mm 2 mps 750 mmHg 85%
    03:00 +8°C° 0 mm 2 mps 750 mmHg 84%
    04:00 +8°C° 0 mm 2 mps 750 mmHg 84%
    05:00 +8°C° 0 mm 2 mps 749 mmHg 84%
    06:00 +8°C° 0 mm 2 mps 749 mmHg 83%
    07:00 +8°C° 0 mm 2 mps 749 mmHg 83%
    08:00 +9°C° 0 mm 2 mps 749 mmHg 79%
    09:00 +10°C° 0 mm 2 mps 749 mmHg 74%
    10:00 +13°C° 0 mm 2 mps 749 mmHg 70%
    11:00 +13°C° 0 mm 2 mps 749 mmHg 67%
    12:00 +14°C° 0 mm 2 mps 748 mmHg 65%
    13:00 +15°C° 0 mm 2 mps 748 mmHg 62%
    14:00 +14°C° 0 mm 2 mps 748 mmHg 66%
    15:00 +14°C° 0 mm 2 mps 747 mmHg 70%
    16:00 +13°C° 0 mm 2 mps 747 mmHg 74%
    17:00 +13°C° 0 mm 2 mps 747 mmHg 76%
    18:00 +12°C° 0 mm 2 mps 747 mmHg 78%
    19:00 +12°C° 0 mm 2 mps 747 mmHg 80%
    20:00 +10°C° 0 mm 2 mps 747 mmHg 80%
    21:00 +10°C° 0 mm 2 mps 747 mmHg 81%
    22:00 +10°C° 0 mm 2 mps 746 mmHg 82%
    23:00 +10°C° 0.1 mm 2 mps 746 mmHg 83%

    27 January, Monday

    Time Temperature Precipitation Wind Pressure Humidity
    00:00 +10°C° 0.1 mm 2 mps 746 mmHg 84%
    01:00 +10°C° 0.1 mm 2 mps 746 mmHg 85%
    02:00 +11°C° 0.9 mm 1 mps 746 mmHg 88%
    03:00 +11°C° 0.9 mm 1 mps 745 mmHg 91%
    04:00 +11°C° 0.9 mm 1 mps 745 mmHg 93%
    05:00 +11°C° 2 mm 1 mps 745 mmHg 94%
    06:00 +9°C° 2 mm 0 mps 745 mmHg 95%
    07:00 +9°C° 2 mm 0 mps 745 mmHg 96%
    08:00 +9°C° 1 mm 0 mps 745 mmHg 95%
    09:00 +9°C° 1 mm 0 mps 745 mmHg 94%
    10:00 +9°C° 1 mm 0 mps 745 mmHg 93%
    11:00 +10°C° 0.1 mm 0 mps 745 mmHg 90%
    12:00 +11°C° 0.1 mm 1 mps 745 mmHg 88%
    13:00 +11°C° 0.1 mm 1 mps 744 mmHg 85%
    14:00 +11°C° 0 mm 1 mps 744 mmHg 85%
    15:00 +11°C° 0 mm 1 mps 744 mmHg 85%
    16:00 +12°C° 0 mm 1 mps 745 mmHg 85%
    17:00 +11°C° 0 mm 1 mps 745 mmHg 86%
    18:00 +9°C° 0 mm 0 mps 745 mmHg 88%
    19:00 +8°C° 0 mm 0 mps 745 mmHg 90%
    20:00 +8°C° 0 mm 0 mps 745 mmHg 90%
    21:00 +8°C° 0 mm 0 mps 746 mmHg 90%
    22:00 +8°C° 0 mm 0 mps 746 mmHg 90%
    23:00 +7°C° 0 mm 0 mps 746 mmHg 90%

    28 January, Tuesday

    Time Temperature Precipitation Wind Pressure Humidity
    00:00 +8°C° 0 mm 1 mps 746 mmHg 90%
    01:00 +8°C° 0 mm 1 mps 746 mmHg 90%
    02:00 +8°C° 0 mm 1 mps 746 mmHg 90%
    03:00 +9°C° 0 mm 1 mps 746 mmHg 90%
    04:00 +9°C° 0 mm 1 mps 746 mmHg 89%
    05:00 +9°C° 0 mm 1 mps 746 mmHg 89%
    06:00 +9°C° 0 mm 1 mps 746 mmHg 88%
    07:00 +9°C° 0 mm 1 mps 746 mmHg 88%
    08:00 +10°C° 0 mm 1 mps 746 mmHg 83%
    09:00 +11°C° 0 mm 1 mps 746 mmHg 79%
    10:00 +12°C° 0 mm 1 mps 746 mmHg 74%
    11:00 +12°C° 0 mm 1 mps 746 mmHg 71%
    12:00 +13°C° 0 mm 1 mps 746 mmHg 68%
    13:00 +13°C° 0 mm 1 mps 746 mmHg 64%
    14:00 +13°C° 0 mm 1 mps 745 mmHg 67%
    15:00 +13°C° 0 mm 1 mps 745 mmHg 69%
    16:00 +13°C° 0 mm 1 mps 745 mmHg 72%
    17:00 +12°C° 0 mm 1 mps 745 mmHg 75%
    18:00 +11°C° 0 mm 1 mps 745 mmHg 79%
    19:00 +10°C° 0 mm 1 mps 746 mmHg 83%
    20:00 +9°C° 0 mm 1 mps 746 mmHg 83%
    21:00 +8°C° 0 mm 2 mps 746 mmHg 84%
    22:00 +8°C° 0 mm 2 mps 746 mmHg 85%
    23:00 +8°C° 0 mm 2 mps 746 mmHg 85%

    29 January, Wednesday

    Time Temperature Precipitation Wind Pressure Humidity
    00:00 +8°C° 0 mm 3 mps 746 mmHg 85%
    01:00 +8°C° 0 mm 3 mps 745 mmHg 85%
    02:00 +8°C° 0 mm 3 mps 745 mmHg 84%
    03:00 +9°C° 0 mm 3 mps 745 mmHg 84%
    04:00 +9°C° 0 mm 3 mps 745 mmHg 83%
    05:00 +9°C° 0 mm 3 mps 745 mmHg 83%
    06:00 +9°C° 0 mm 2 mps 745 mmHg 83%
    07:00 +9°C° 0 mm 2 mps 745 mmHg 83%
    08:00 +10°C° 0 mm 2 mps 745 mmHg 82%
    09:00 +12°C° 0 mm 2 mps 745 mmHg 80%
    10:00 +12°C° 0 mm 3 mps 746 mmHg 79%
    11:00 +13°C° 0.1 mm 3 mps 745 mmHg 76%
    12:00 +13°C° 0.1 mm 3 mps 745 mmHg 72%
    13:00 +14°C° 0.1 mm 3 mps 744 mmHg 69%
    14:00 +14°C° 0.3 mm 3 mps 744 mmHg 73%
    15:00 +13°C° 0.3 mm 3 mps 744 mmHg 76%
    16:00 +13°C° 0.3 mm 3 mps 744 mmHg 80%
    17:00 +13°C° 0.3 mm 2 mps 745 mmHg 84%
    18:00 +12°C° 0.3 mm 1 mps 745 mmHg 88%
    19:00 +11°C° 0.3 mm 1 mps 745 mmHg 92%
    20:00 +11°C° 0.2 mm 1 mps 745 mmHg 91%
    21:00 +11°C° 0.2 mm 1 mps 745 mmHg 90%
    22:00 +11°C° 0.2 mm 1 mps 746 mmHg 90%
    23:00 +10°C° 0.1 mm 1 mps 746 mmHg 89%
    Show more